WW3TRG Weather Reports


time (UTC)temp
C
wind
direction
speed
KPH
gust
KPH
rain 1hr
cm
rain 24hr
cm
rain mn
cm
humidity
%
barometer
mb
20260510081549 10 160 0.0 1.6 0.00 0.00 0.00 99 1010.3
20260510081045 10 151 3.2 3.2 0.00 0.00 0.00 99 1010.3
20260510080544 10 157 0.0 1.6 0.00 0.00 0.00 99 1010.3
20260510080041 10 145 0.0 0.0 0.00 0.00 0.00 99 1010.4
20260510075539 10 145 0.0 1.6 0.00 0.00 0.00 99 1010.6
20260510075035 10 157 0.0 0.0 0.00 0.00 0.00 99 1010.4
20260510074533 10 157 0.0 3.2 0.00 0.00 0.00 99 1010.4
20260510074028 10 166 0.0 0.0 0.00 0.00 0.00 99 1010.6
20260510073524 10 166 0.0 0.0 0.00 0.00 0.00 99 1010.6
20260510073022 10 166 0.0 0.0 0.00 0.00 0.00 99 1010.9
20260510072518 10 166 0.0 3.2 0.00 0.00 0.00 99 1010.8
20260510072014 10 106 0.0 1.6 0.00 0.00 0.00 99 1010.8
20260510071510 10 128 3.2 4.8 0.00 0.00 0.00 99 1010.8
20260510071009 10 114 0.0 6.4 0.00 0.00 0.00 99 1010.8
20260510070505 10 14 0.0 3.2 0.00 0.00 0.00 99 1011.0
20260510070001 10 140 3.2 3.2 0.00 0.00 0.00 99 1011.1
20260510065458 10 168 3.2 3.2 0.00 0.00 0.00 99 1011.2
20260510064954 11 159 3.2 4.8 0.00 0.00 0.00 99 1010.8
20260510064451 10 131 0.0 0.0 0.00 0.00 0.00 99 1010.7
20260510063948 10 90 0.0 1.6 0.00 0.00 0.00 99 1010.2
20260510063444 10 99 0.0 3.2 0.00 0.00 0.00 99 1010.3
20260510062942 10 114 0.0 0.0 0.00 0.00 0.00 99 1010.4
20260510062437 10 98 1.6 3.2 0.00 0.00 0.00 99 1010.6
20260510061932 10 90 0.0 3.2 0.00 0.00 0.00 99 1010.3
20260510061429 10 157 0.0 0.0 0.00 0.00 0.00 99 1010.2
20260510060925 10 148 0.0 1.6 0.00 0.00 0.00 99 1010.5
20260510060423 10 99 0.0 0.0 0.00 0.00 0.00 99 1010.7
20260510055918 10 99 0.0 0.0 0.00 0.00 0.00 99 1010.8
20260510055414 9 99 0.0 0.0 0.00 0.00 0.00 99 1010.8
20260510054907 10 140 0.0 0.0 0.00 0.00 0.00 99 1010.9
20260510054402 9 148 1.6 3.2 0.00 0.00 0.00 99 1010.9
20260510053857 9 180 0.0 1.6 0.00 0.00 0.00 99 1010.7
20260510053353 9 99 0.0 1.6 0.00 0.00 0.00 99 1010.9
20260510052850 9 120 0.0 1.6 0.00 0.00 0.00 99 1011.0
20260510052345 9 148 0.0 0.0 0.00 0.00 0.00 99 1010.5
20260510051842 9 151 1.6 1.6 0.00 0.00 0.00 99 1010.4
20260510051339 8 105 0.0 1.6 0.00 0.00 0.00 99 1010.4
20260510050835 8 90 0.0 1.6 0.00 0.00 0.00 99 1010.4
20260510050332 8 117 0.0 0.0 0.00 0.00 0.00 99 1010.4
20260510045829 8 96 0.0 3.2 0.00 0.00 0.00 99 1010.4
20260510045326 8 114 0.0 0.0 0.00 0.00 0.00 99 1010.3
20260510044823 8 114 0.0 0.0 0.00 0.00 0.00 99 1010.4
20260510044320 8 99 0.0 3.2 0.00 0.00 0.00 99 1010.4
20260510043816 8 90 0.0 1.6 0.00 0.00 0.00 99 1010.6
20260510043312 8 99 0.0 0.0 0.00 0.00 0.00 99 1010.2
20260510042810 8 99 0.0 0.0 0.00 0.00 0.00 99 1010.4
20260510042307 8 99 0.0 1.6 0.00 0.00 0.00 99 1010.3
20260510041803 8 106 0.0 0.0 0.00 0.00 0.00 99 1010.7
20260510041300 8 106 0.0 0.0 0.00 0.00 0.00 99 1010.6
20260510040757 8 151 0.0 0.0 0.00 0.00 0.00 99 1010.3
20260510040254 8 151 0.0 0.0 0.00 0.00 0.00 99 1010.5
20260510035749 8 151 0.0 1.6 0.00 0.48 0.48 99 1010.3
20260510035245 8 165 0.0 0.0 0.00 0.48 0.48 99 1010.5
20260510034741 8 151 0.0 1.6 0.00 0.48 0.48 99 1010.4
20260510034239 9 111 0.0 0.0 0.00 0.48 0.48 99 1010.2
20260510033735 10 157 0.0 0.0 0.00 0.48 0.48 99 1010.2
20260510033233 9 174 0.0 1.6 0.00 0.48 0.48 99 1010.2
20260510032729 9 106 0.0 0.0 0.00 0.48 0.48 99 1010.2
20260510032225 9 106 0.0 0.0 0.00 0.48 0.48 99 1010.1
20260510031720 9 106 0.0 0.0 0.00 0.48 0.48 99 1010.2
20260510031216 9 106 0.0 0.0 0.00 0.48 0.48 99 1010.1
20260510030715 10 97 1.6 1.6 0.00 0.48 0.48 99 1010.1
20260510030213 10 106 0.0 0.0 0.00 0.48 0.48 99 1010.4
20260510025711 10 106 0.0 0.0 0.00 0.48 0.48 99 1010.2
20260510025208 10 106 0.0 1.6 0.00 0.48 0.48 99 1010.1
20260510024705 10 66 0.0 0.0 0.00 0.48 0.48 99 1010.2
20260510024201 9 66 0.0 0.0 0.00 0.48 0.48 99 1010.2
20260510023657 10 66 0.0 1.6 0.00 0.48 0.48 99 1010.2
20260510023154 9 90 0.0 1.6 0.00 0.48 0.48 99 1010.1
20260510022649 10 165 0.0 0.0 0.00 0.48 0.48 99 1010.2
20260510022144 10 165 0.0 1.6 0.00 0.48 0.48 99 1010.1
20260510021640 9 165 0.0 1.6 0.00 0.48 0.48 99 1010.2
20260510021138 9 166 1.6 3.2 0.00 0.48 0.48 99 1010.4
20260510020632 9 172 0.0 0.0 0.00 0.48 0.48 99 1009.9
20260510020127 9 172 0.0 0.0 0.00 0.48 0.48 99 1009.8
20260510015624 9 172 0.0 0.0 0.00 0.48 0.48 99 1009.8
20260510015120 9 180 0.0 1.6 0.00 0.48 0.48 99 1009.8
20260510014616 8 106 0.0 0.0 0.00 0.48 0.48 99 1010.0
20260510014113 9 106 0.0 0.0 0.00 0.48 0.48 99 1010.1
20260510013608 9 106 0.0 0.0 0.00 0.48 0.48 99 1010.0
20260510013103 9 180 0.0 0.0 0.00 0.48 0.48 99 1009.9
20260510012557 10 180 0.0 0.0 0.00 0.48 0.48 99 1009.8
20260510012054 10 180 0.0 0.0 0.00 0.48 0.48 99 1009.7
20260510011554 10 180 0.0 0.0 0.00 0.48 0.48 99 1009.5
20260510011050 10 180 0.0 1.6 0.00 0.48 0.48 99 1009.8
20260510010547 10 172 0.0 0.0 0.00 0.48 0.48 99 1009.6
20260510010044 10 172 0.0 0.0 0.00 0.48 0.48 99 1009.5
20260510005539 10 180 0.0 0.0 0.00 0.48 0.48 99 1009.4
20260510005037 10 172 0.0 1.6 0.00 0.48 0.48 99 1009.3
20260510004535 10 172 0.0 0.0 0.00 0.48 0.48 99 1009.5
20260510004033 10 148 0.0 1.6 0.00 0.48 0.48 99 1009.2
20260510003529 10 172 0.0 0.0 0.00 0.48 0.48 99 1009.4
20260510003024 10 172 0.0 0.0 0.00 0.48 0.48 99 1009.1
20260510002520 11 180 0.0 0.0 0.00 0.48 0.48 99 1009.0
20260510002017 10 180 1.6 1.6 0.00 0.48 0.48 99 1009.1
20260510001514 11 195 0.0 1.6 0.00 0.48 0.48 99 1009.1
20260510001012 11 180 0.0 0.0 0.00 0.48 0.48 99 1008.9
20260510000507 11 180 0.0 0.0 0.00 0.48 0.48 99 1009.0
20260510000004 11 180 0.0 0.0 0.00 0.48 0.48 99 1008.8
20260509235501 11 180 0.0 0.0 0.00 0.48 0.48 99 1008.5
20260509234957 11 180 0.0 0.0 0.00 0.48 0.48 99 1008.9
20260509234454 11 180 0.0 0.0 0.00 0.48 0.48 99 1008.7
20260509233952 12 172 0.0 0.0 0.00 0.48 0.48 99 1008.8
20260509233449 12 188 0.0 0.0 0.00 0.48 0.48 99 1008.7
20260509232945 12 188 0.0 0.0 0.00 0.48 0.48 99 1008.6
20260509232443 12 188 0.0 0.0 0.00 0.48 0.48 99 1008.7
20260509231938 12 188 0.0 0.0 0.00 0.48 0.48 99 1008.4
20260509231435 12 188 0.0 0.0 0.00 0.48 0.48 99 1008.7
20260509230934 13 188 0.0 3.2 0.00 0.48 0.48 98 1008.5
20260509230430 12 172 0.0 0.0 0.00 0.48 0.48 98 1008.6
20260509225926 13 99 0.0 0.0 0.00 0.48 0.48 97 1008.8
20260509225422 13 99 0.0 0.0 0.00 0.48 0.48 97 1008.7
20260509224919 13 99 0.0 0.0 0.00 0.48 0.48 97 1008.8
20260509224414 13 99 0.0 0.0 0.00 0.48 0.48 96 1008.7
20260509223912 13 99 0.0 0.0 0.00 0.48 0.48 96 1008.6
20260509223408 13 99 0.0 0.0 0.00 0.48 0.48 95 1008.7
20260509222905 14 99 0.0 0.0 0.00 0.48 0.48 94 1008.7
20260509222401 14 99 0.0 0.0 0.00 0.48 0.48 91 1008.9
20260509221856 14 81 0.0 0.0 0.00 0.48 0.48 91 1008.6
20260509221354 14 74 0.0 1.6 0.00 0.48 0.48 91 1008.8
20260509220849 15 14 0.0 0.0 0.00 0.48 0.48 91 1008.9
20260509220345 15 14 0.0 1.6 0.00 0.48 0.48 89 1008.9
20260509215841 15 152 0.0 0.0 0.00 0.48 0.48 88 1008.8
20260509215338 15 145 0.0 0.0 0.00 0.48 0.48 89 1008.9
20260509214835 15 145 0.0 0.0 0.00 0.48 0.48 88 1009.0
20260509214332 15 157 0.0 1.6 0.00 0.48 0.48 88 1008.9
20260509213829 15 151 0.0 3.2 0.00 0.48 0.48 90 1009.0
20260509213324 15 135 0.0 3.2 0.00 0.48 0.48 90 1008.9
20260509212822 15 145 0.0 0.0 0.00 0.48 0.48 90 1009.1
20260509212320 15 180 0.0 0.0 0.00 0.48 0.48 91 1008.8
20260509211815 15 145 0.0 0.0 0.00 0.48 0.48 89 1008.9
20260509211311 15 172 0.0 4.8 0.00 0.48 0.48 88 1009.1
20260509210808 15 334 0.0 3.2 0.00 0.48 0.48 91 1009.2
20260509210306 15 117 0.0 0.0 0.00 0.48 0.48 93 1009.2
20260509205805 13 172 0.0 0.0 0.00 0.48 0.48 92 1009.2
20260509205300 13 188 0.0 4.8 0.00 0.48 0.48 93 1009.1
20260509204756 13 172 0.0 1.6 0.00 0.48 0.48 95 1009.3
20260509204253 13 180 0.0 1.6 0.00 0.48 0.48 95 1009.2
20260509203749 13 165 1.6 3.2 0.00 0.48 0.48 96 1009.3
20260509203247 13 117 1.6 1.6 0.00 0.48 0.48 96 1009.4
20260509202742 13 157 0.0 3.2 0.00 0.48 0.48 96 1009.6
20260509202238 13 159 3.2 3.2 0.00 0.48 0.48 96 1009.6
20260509201733 12 174 1.6 3.2 0.00 0.48 0.48 97 1009.5
20260509201230 13 165 0.0 3.2 0.00 0.48 0.48 97 1009.5
20260509200726 12 180 0.0 1.6 0.00 0.48 0.48 98 1009.5
20260509200221 12 270 0.0 0.0 0.00 0.48 0.48 98 1009.4
20260509195717 12 270 0.0 0.0 0.00 0.48 0.48 99 1009.5
20260509195213 12 270 0.0 0.0 0.00 0.48 0.48 99 1009.5
20260509194707 12 279 0.0 1.6 0.00 0.48 0.48 99 1009.7
20260509194204 12 261 0.0 0.0 0.00 0.48 0.48 99 1009.6
20260509193700 12 261 0.0 0.0 0.00 0.48 0.48 99 1009.6
20260509193155 12 194 0.0 3.2 0.00 0.48 0.48 99 1009.8
20260509192652 12 243 0.0 0.0 0.00 0.48 0.48 99 1009.9
20260509192147 12 243 0.0 0.0 0.00 0.48 0.48 99 1010.0
20260509191648 12 243 0.0 0.0 0.05 0.48 0.48 99 1009.9
20260509191144 12 243 0.0 0.0 0.05 0.48 0.48 99 1010.2
20260509190641 12 124 0.0 0.0 0.05 0.46 0.46 99 1010.3
20260509190138 12 261 0.0 0.0 0.13 0.46 0.46 99 1010.5
20260509185636 12 180 0.0 0.0 0.05 0.46 0.46 99 1010.6
20260509185131 12 203 1.6 3.2 0.05 0.46 0.46 99 1010.6
20260509184624 12 157 0.0 0.0 0.13 0.46 0.46 99 1010.7
20260509184120 12 173 0.0 1.6 0.05 0.43 0.43 99 1010.9
20260509183616 12 195 0.0 0.0 0.13 0.43 0.43 99 1010.7
20260509183112 12 195 0.0 0.0 0.05 0.43 0.43 99 1010.7
20260509182608 12 195 0.0 1.6 0.05 0.41 0.41 99 1010.5
20260509182105 12 180 0.0 0.0 0.05 0.41 0.41 99 1010.7
20260509181604 12 180 0.0 3.2 0.13 0.41 0.41 99 1010.7
20260509181101 12 180 0.0 0.0 0.05 0.38 0.38 99 1010.9
20260509180556 12 261 0.0 0.0 0.05 0.38 0.38 99 1010.5
20260509180054 12 116 4.8 4.8 0.05 0.38 0.38 98 1010.6
20260509175549 12 172 0.0 3.2 0.13 0.36 0.36 98 1010.7
20260509175046 12 220 3.2 4.8 0.13 0.36 0.36 98 1010.4
20260509174542 12 175 0.0 4.8 0.23 0.33 0.33 99 1010.5
20260509174037 12 99 0.0 0.0 0.23 0.33 0.33 99 1010.8
20260509173532 12 106 4.8 4.8 0.13 0.30 0.30 99 1010.7
20260509173029 12 97 0.0 3.2 0.13 0.28 0.28 99 1010.6
20260509172526 12 98 0.0 0.0 0.13 0.28 0.28 98 1010.6
20260509172021 12 145 0.0 3.2 0.18 0.25 0.25 98 1010.8
20260509171518 12 172 0.0 0.0 0.30 0.25 0.25 97 1010.7
20260509171015 12 114 1.6 3.2 0.36 0.23 0.23 97 1010.7
20260509170510 13 99 0.0 0.0 0.48 0.18 0.18 97 1010.7
20260509170006 13 99 0.0 0.0 0.43 0.15 0.15 95 1010.9
20260509165504 13 145 0.0 0.0 0.18 0.10 0.10 94 1011.1
20260509165000 13 145 0.0 3.2 0.05 0.08 0.08 92 1011.2
20260509164457 13 157 0.0 0.0 0.05 0.05 0.05 92 1011.1
20260509163952 13 219 0.0 0.0 0.05 0.05 0.05 89 1011.0
20260509163451 13 225 0.0 3.2 0.13 0.05 0.05 89 1010.9
20260509162949 13 170 0.0 3.2 0.05 0.05 0.05 86 1010.9
20260509162448 14 90 0.0 1.6 0.05 0.03 0.03 86 1011.0
20260509161944 15 180 0.0 0.0 0.00 0.03 0.03 86 1011.1
20260509161440 15 180 4.8 4.8 0.00 0.03 0.03 84 1010.9
20260509160936 15 180 0.0 3.2 0.00 0.03 0.03 83 1010.9
20260509160432 15 277 0.0 1.6 0.00 0.03 0.03 82 1011.0
20260509155927 15 151 0.0 4.8 0.00 0.03 0.03 81 1011.1
20260509155424 15 176 3.2 4.8 0.00 0.03 0.03 82 1011.1
20260509154920 15 172 0.0 6.4 0.00 0.03 0.03 80 1011.1
20260509154417 15 189 3.2 4.8 0.00 0.03 0.03 80 1011.1
20260509153914 15 160 0.0 3.2 0.00 0.03 0.03 81 1011.2
20260509153411 15 81 0.0 0.0 0.00 0.03 0.03 83 1011.2
20260509152908 15 180 0.0 3.2 0.00 0.03 0.03 83 1011.1
20260509152404 14 150 3.2 3.2 0.00 0.03 0.03 83 1011.3
20260509151901 14 82 0.0 0.0 0.00 0.03 0.03 85 1011.3
20260509151356 14 40 3.2 3.2 0.00 0.03 0.03 86 1011.2
20260509150855 13 28 0.0 0.0 0.00 0.03 0.03 89 1011.2
20260509150353 13 20 0.0 0.0 0.00 0.03 0.03 90 1011.2
20260509145850 13 20 0.0 0.0 0.00 0.03 0.03 90 1011.0
20260509145344 13 20 0.0 0.0 0.00 0.03 0.03 91 1010.7
20260509144841 13 20 0.0 0.0 0.00 0.03 0.03 92 1010.8
20260509144338 13 20 0.0 0.0 0.00 0.03 0.03 90 1010.9
20260509143835 13 74 0.0 1.6 0.00 0.03 0.03 89 1010.9
20260509143333 13 48 3.2 3.2 0.00 0.03 0.03 89 1011.1
20260509142828 13 60 0.0 0.0 0.00 0.03 0.03 89 1011.0
20260509142325 13 60 0.0 0.0 0.00 0.03 0.03 88 1010.9
20260509141820 13 60 0.0 1.6 0.00 0.03 0.03 89 1010.9
20260509141318 13 99 0.0 0.0 0.00 0.03 0.03 89 1010.9
20260509140814 13 99 0.0 0.0 0.00 0.03 0.03 91 1011.1
20260509140311 13 99 0.0 0.0 0.00 0.03 0.03 91 1010.9
20260509135809 13 99 0.0 0.0 0.00 0.03 0.03 92 1010.9
20260509135306 12 165 0.0 0.0 0.05 0.03 0.03 92 1011.0
20260509134803 12 165 0.0 0.0 0.05 0.03 0.03 91 1011.2
20260509134301 13 165 0.0 0.0 0.00 0.00 0.00 92 1010.9
20260509133758 12 165 0.0 0.0 0.00 0.00 0.00 92 1010.7
20260509133254 12 165 0.0 0.0 0.00 0.00 0.00 91 1011.0
20260509132753 12 165 0.0 0.0 0.05 0.00 0.00 91 1010.7
20260509132252 12 165 0.0 0.0 0.05 0.00 0.00 89 1010.8
20260509131748 12 165 0.0 1.6 0.00 0.00 0.00 90 1010.9
20260509131244 12 106 0.0 0.0 0.00 0.00 0.00 89 1010.3
20260509130740 12 106 0.0 0.0 0.00 0.00 0.00 89 1010.4
20260509130236 12 106 0.0 0.0 0.00 0.00 0.00 89 1010.6
20260509125733 12 106 0.0 1.6 0.00 0.00 0.00 89 1010.7
20260509125230 12 90 0.0 0.0 0.00 0.00 0.00 90 1010.7
20260509124726 12 90 0.0 0.0 0.00 0.00 0.00 90 1010.9
20260509124223 12 90 0.0 0.0 0.00 0.00 0.00 88 1011.0
20260509123721 12 90 0.0 0.0 0.00 0.00 0.00 89 1010.7
20260509123218 12 66 0.0 0.0 0.00 0.00 0.00 90 1010.9
20260509122714 12 81 0.0 0.0 0.00 0.00 0.00 89 1011.1
20260509122211 12 81 0.0 0.0 0.00 0.00 0.00 88 1011.0
20260509121707 12 97 1.6 3.2 0.00 0.00 0.00 85 1011.0
20260509121205 11 90 0.0 1.6 0.00 0.00 0.00 86 1010.8
20260509120703 11 81 0.0 3.2 0.00 0.00 0.00 86 1011.2
20260509120201 11 165 0.0 1.6 0.00 0.00 0.00 86 1011.4
20260509115658 11 66 0.0 0.0 0.00 0.00 0.00 88 1011.0
20260509115155 11 106 0.0 0.0 0.00 0.00 0.00 87 1011.1
20260509114654 11 106 0.0 0.0 0.00 0.00 0.00 91 1010.9
20260509114152 11 106 0.0 3.2 0.00 0.00 0.00 92 1010.9
20260509113650 11 99 0.0 0.0 0.00 0.00 0.00 92 1010.7
20260509113147 11 109 3.2 3.2 0.00 0.00 0.00 93 1010.7
20260509112644 11 140 0.0 0.0 0.00 0.00 0.00 93 1010.6
20260509112141 10 140 0.0 0.0 0.00 0.00 0.00 93 1010.6
20260509111638 10 164 0.0 3.2 0.00 0.00 0.00 94 1010.8
20260509111135 10 90 0.0 3.2 0.00 0.00 0.00 94 1010.4
20260509110632 10 63 0.0 0.0 0.00 0.00 0.00 94 1010.4
20260509110129 10 151 0.0 1.6 0.00 0.00 0.00 94 1010.8
20260509105627 10 166 1.6 1.6 0.00 0.00 0.00 94 1010.6
20260509105124 10 180 0.0 0.0 0.00 0.00 0.00 94 1010.5
20260509104621 10 173 0.0 0.0 0.00 0.00 0.00 95 1010.4
20260509104118 10 173 0.0 1.6 0.00 0.00 0.00 95 1010.6
20260509103616 9 172 0.0 0.0 0.00 0.00 0.00 95 1010.6
20260509103113 9 114 0.0 0.0 0.00 0.00 0.00 96 1010.4
20260509102610 9 114 0.0 3.2 0.00 0.00 0.00 96 1010.4
20260509102107 9 172 0.0 1.6 0.00 0.00 0.00 96 1010.4
20260509101604 9 166 0.0 1.6 0.00 0.00 0.00 97 1010.3
20260509101101 8 126 0.0 0.0 0.00 0.00 0.00 97 1010.3
20260509100558 8 60 1.6 3.2 0.00 0.00 0.00 97 1010.1
20260509100055 8 106 0.0 3.2 0.00 0.00 0.00 97 1010.5
20260509095551 8 191 0.0 0.0 0.00 0.00 0.00 97 1010.6
20260509095049 8 120 0.0 1.6 0.00 0.00 0.00 97 1010.3
20260509094545 8 106 0.0 1.6 0.00 0.00 0.00 97 1010.5
20260509094043 8 120 0.0 1.6 0.00 0.00 0.00 97 1010.6
20260509093541 8 120 0.0 0.0 0.00 0.00 0.00 97 1010.8
20260509093038 8 81 0.0 0.0 0.00 0.00 0.00 97 1010.6
20260509092536 8 114 0.0 1.6 0.00 0.00 0.00 96 1010.6
20260509092034 8 98 0.0 0.0 0.00 0.00 0.00 96 1010.7
20260509091531 8 106 0.0 0.0 0.00 0.00 0.00 96 1010.5
20260509091028 8 174 0.0 0.0 0.00 0.00 0.00 96 1010.6
20260509090525 8 174 0.0 1.6 0.00 0.00 0.00 96 1010.6
20260509090023 8 165 0.0 0.0 0.00 0.00 0.00 96 1010.6
20260509085519 8 187 1.6 3.2 0.00 0.00 0.00 96 1010.7
20260509085015 8 99 0.0 0.0 0.00 0.00 0.00 96 1010.5
20260509084513 8 120 0.0 1.6 0.00 0.00 0.00 96 1010.8
20260509084010 8 173 0.0 0.0 0.00 0.00 0.00 96 1011.1
20260509083507 8 180 0.0 1.6 0.00 0.00 0.00 96 1011.1
20260509083003 8 180 0.0 1.6 0.00 0.00 0.00 97 1011.2
20260509082501 8 120 0.0 1.6 0.00 0.00 0.00 96 1010.9
20260509081958 8 106 0.0 1.6 0.00 0.00 0.00 96 1011.2